Regional Weather Roundup
Issued by NWS

Home | Current Version | Previous Version | Text Only | Print | Product List | Glossary On
Versions: 1 2 3 4 5 6 7 8 9 10 11 12 13 14 15 16 17 18 19 20 21 22 23 24 25 26 27 28 29 30 31 32 33 34 35 36 37 38 39 40 41 42 43 44 45 46 47 48 49 50
000
ASCA44 KEWX 192020
RWRMX

LATIN AMERICA AND CARIBBEAN REGIONAL WEATHER ROUNDUP
NATIONAL WEATHER SERVICE AUSTIN/SAN ANTONIO TX
300 PM CDT THU OCT 19 2017

NOTE: "FAIR" INDICATED FEW OR NO CLOUDS BELOW 12,000 FEET WITH NO
SIGNIFICANT WEATHER AND/OR OBSTRUCTIONS TO VISIBILITY.

BAJA CALIFORNIA

CITY           SKY/WX    TMP DP  RH WIND       PRES   REMARKS
LORETO         SUNNY     93  77  59 E8        29.76  HX 107
LA PAZ         SUNNY    102  39  11 MISG      29.81F HX  97
MEXICALI       PTSUNNY   93  32  11 S3        29.76F
S.J. DEL CABO  SUNNY     97  59  28 SE14      29.82F HX  96
TIJUANA        PTSUNNY   73  61  64 W13       29.93F

NORTHWESTERN MEXICO

CITY           SKY/WX    TMP DP  RH WIND       PRES   REMARKS
CULIACAN       SUNNY     97  70  41 CALM      29.78F HX 103
DURANGO        MOSUNNY   75  39  27 E7        30.21F
GUAYMAS        SUNNY     95  63  34 S16       29.74F HX  96
HERMOSILLO     PTSUNNY   97  43  15 CALM      29.82F HX  92
CD. JUAREZ     MOSUNNY   81  48  32 SE9       30.03F
LOS MOCHIS     SUNNY     91  59  33 SW13      29.81F HX  90
OBREGON        MOSUNNY  100  36  10 SW5       29.76F HX  95

NORTHEASTERN MEXICO

CITY           SKY/WX    TMP DP  RH WIND       PRES   REMARKS
CHIHUAHUA      PTSUNNY   84  50  30 SE6       30.06F
MATAMOROS      PTSUNNY   86  70  58 E8        29.99F HX  90
MONCLOVA       MOSUNNY   79  52  38 N7        30.03F
MONTERREY      PTSUNNY   79  55  44 E9        30.02F
NUEVO LAREDO   MOSUNNY   82  63  51 SE5       30.01F
PIEDRAS NEGRAS MOSUNNY   81  57  44 MISG      30.03F
REYNOSA        MOSUNNY   84  59  42 E6        29.99F
SALTILLO       SUNNY     73  55  53 N6        30.17F
TORREON        PTSUNNY   86  45  23 CALM      30.05F
CD. VICTORIA   SUNNY     86  50  28 MISG      29.98F

WESTERN MEXICO

CITY           SKY/WX    TMP DP  RH WIND       PRES   REMARKS
AGUASCALIENTES MOSUNNY   77  43  29 NE5       30.23F
COLIMA         MOSUNNY   84  73  70 SW6       29.96F HX  91
DEL BAJIO      MOSUNNY   79  48  34 NW5       30.25F
GUADALAJARA    MOSUNNY   81  55  41 NE5       30.14F
MANZANILLO     MOSUNNY   88  81  79 S9        29.81F HX 105
MAZATLAN       MOSUNNY   91  81  70 W5        29.82F HX 110
P. VALLARTA    MOSUNNY   90  77  66 SW9       29.89R HX 102
URUAPAN        PTSUNNY   73  64  73 MISG      30.14F THUNDER
ZACATECAS        N/A    N/A N/A N/A MISG        N/A

CENTRAL MEXICO

CITY           SKY/WX    TMP DP  RH WIND       PRES   REMARKS
CUERNAVACA     PTSUNNY   81  61  50 SW6       30.07F
MEXICO CITY    MOSUNNY   77  43  29 CALM      30.26F
MORELIA        MOSUNNY   79  55  44 N3        30.17F
POZA RICA      MOSUNNY   90  68  48 MISG      30.04F HX  93
PUEBLA         MOSUNNY   75  48  38 SW12      30.26
QUERETARO      PTSUNNY   79  45  29 E2        30.24F
S. LUIS POTOSI SUNNY     79  32  18 NW5       30.21F
TAMPICO        MOSUNNY   82  70  65 NE12      30.01S
TOLUCA         PTSUNNY   72  46  40 NW8       30.31F

SOUTHERN MEXICO

CITY           SKY/WX    TMP DP  RH WIND       PRES   REMARKS
ACAPULCO       SUNNY     88  81  79 SW6       29.79F HX 105
B. DE HUATULCO MOSUNNY  N/A N/A N/A CALM      29.84F
OAXACA         CLOUDY    77  55  47 CALM      30.17F
P. ESCONDIDO   MOSUNNY   86  79  79 S10       29.91F HX  99
VERACRUZ       MOSUNNY   86  72  62 N9        29.96F HX  92
ZIHUATANEJO    MOSUNNY   93  79  62 SW12      29.80F HX 110

YUCATAN PENINSULA

CITY           SKY/WX    TMP DP  RH WIND       PRES   REMARKS
CAMPECHE       LGT RAIN  81  75  83 S12       29.87F
CANCUN         PTSUNNY   84  75  74 SE6       29.93F HX  92
CHETUMAL       PTSUNNY   79  75  89 SE7       29.92F
CD. DEL CARMEN PTSUNNY  N/A N/A N/A S3        29.91F
COZUMEL        PTSUNNY   86  77  74 NE7       29.90F HX  97
MERIDA         PTSUNNY   91  73  55 E9        29.89F HX 100
MINATITLAN     CLOUDY    77  73  88 N12       29.93F
TAPACHULA      PTSUNNY   90  77  66 W9        29.78F HX 102
TUX. GUTIERREZ PTSUNNY   82  70  65 NW10      29.93F
VILLAHERMOSA   PTSUNNY   84  75  74 CALM      29.93F HAZE    HX  92

CENTRAL AMERICA

CITY           SKY/WX    TMP DP  RH WIND       PRES   REMARKS
BELIZE CITY    LGT RAIN  81  77  89 E3        29.89F
MANAGUA        PTCLDY    88  77  70 NE16      29.77S HX 100

CARIBBEAN

CITY           SKY/WX    TMP DP  RH WIND       PRES   REMARKS
ARUBA          MOSUNNY   88  77  70 E25       29.74S HX 100
CURACAO        MOSUNNY   86  75  70 E17       29.80S HX  95
KINGSTON       LGT RAIN  84  75  74 SE20      29.83  HX  92
NASSAU         PTSUNNY   86  79  79 N7        29.96F HX  99
SAN JUAN       MOSUNNY   88  75  66 E20       29.94S HAZE    HX  97
SANTO DOMINGO  RAIN      84  75  74 E14       29.92S HX  92
ST. CROIX      MOSUNNY   88  75  66 SE12      29.94F DUST    HX  97
ST. MAARTEN    MOSUNNY   86  73  66 E7        29.94F HX  93
ST. THOMAS       N/A     86  75  70 E17G25    29.95  HX  95

$$





USA.gov is the U.S. government's official web portal to all federal, state and local government web resources and services.